Find Starlink 34313

NORAD ID: 64166 Int'l Des: 2025-112 Owner: SPXS Country: US Constellation: starlink operational
LEOCIRCULARRETROGRADESSO

現在のビュー

3D地球を読み込み中...

About Starlink 34313

Starlink 34313 (NORAD 64166) is a starlink constellation satellite (v2 mini) launched May 27, 2025 by SPXS of US. It operates in LEO, CIRCULAR, RETROGRADE, SSO orbit with a mass of 575.00 kg.

次回通過

Passes for default location (London). Set your location on the main map for personalized predictions.

高度履歴

Loading altitude history...

軌道要素

1 64166U 25112W 26262.91002491 .00018231 00000-0 56527-3 0 9991
2 64166 97.2866 309.9321 0000603 115.1886 244.9420 15.33468530 72652
Epoch: Sep 19, 2026 • Age: 19 hours

現在のステータス

高度 468.1 km
遠地点 / 近地点 N/A
速度 7.63 km/s
衛星直下点 4.68°N, 60.71°E
打ち上げ日 May 27, 2025
運用期間 1.3 years
タイプ internet

技術仕様

分類 Payload
質量 575.00 kg
乾燥質量 530.00 kg
長さ 0.30 m
スパン 29.00 m
形状 ? Box + pan
製造者 SPXS
バスタイプ Starlink V2MO
フェーズステータス In Orbit
所有者/国 SPXS/US

Most Searched